Satellite: NOAA-11
Catalog number: 19531
Epoch time: 10364.26100546
Element set: 343
Inclination: 098.7601 deg
RA of node: 089.8820 deg
Eccentricity: 0.0010842
Arg of perigee: 314.3023 deg
Mean anomaly: 045.7255 deg
Mean motion: 14.14899052 rev/day
Decay rate: -2.66e-06 rev/day^2
Epoch rev: 14886
Checksum: 289
Satellite: NOAA-12
Catalog number: 21263
Epoch time: 10364.37165954
Element set: 833
Inclination: 098.7592 deg
RA of node: 017.4473 deg
Eccentricity: 0.0012001
Arg of perigee: 321.2696 deg
Mean anomaly: 038.7625 deg
Mean motion: 14.25675952 rev/day
Decay rate: 2.3e-07 rev/day^2
Epoch rev: 2035
Checksum: 287
Satellite: MET-3/5
Catalog number: 21655
Epoch time: 10364.63546277
Element set: 1
Inclination: 082.5562 deg
RA of node: 169.8466 deg
Eccentricity: 0.0012785
Arg of perigee: 214.5761 deg
Mean anomaly: 145.4485 deg
Mean motion: 13.17027196 rev/day
Decay rate: 5.1e-07 rev/day^2
Epoch rev: 93153
Checksum: 305
Satellite: MET-2/21
Catalog number: 22782
Epoch time: 10364.76701834
Element set: 978
Inclination: 082.5476 deg
RA of node: 096.5078 deg
Eccentricity: 0.0021603
Arg of perigee: 208.0024 deg
Mean anomaly: 151.9980 deg
Mean motion: 13.83653861 rev/day
Decay rate: 2.1e-07 rev/day^2
Epoch rev: 87526
Checksum: 314
Satellite: OKEAN-4
Catalog number: 23317
Epoch time: 10364.81925461
Element set: 434
Inclination: 082.5397 deg
RA of node: 170.3206 deg
Eccentricity: 0.0021134
Arg of perigee: 317.5886 deg
Mean anomaly: 042.3687 deg
Mean motion: 14.82915485 rev/day
Decay rate: 1.86e-06 rev/day^2
Epoch rev: 87559
Checksum: 319
Satellite: NOAA-14
Catalog number: 23455
Epoch time: 10364.39016622
Element set: 322
Inclination: 098.8651 deg
RA of node: 083.6315 deg
Eccentricity: 0.0010054
Arg of perigee: 042.8952 deg
Mean anomaly: 317.3006 deg
Mean motion: 14.13803740 rev/day
Decay rate: 4.9e-07 rev/day^2
Epoch rev: 82522
Checksum: 271
Satellite: NOAA-15
Catalog number: 25338
Epoch time: 10364.28507701
Element set: 651
Inclination: 098.6394 deg
RA of node: 347.8961 deg
Eccentricity: 0.0009992
Arg of perigee: 220.8773 deg
Mean anomaly: 139.1691 deg
Mean motion: 14.24875619 rev/day
Decay rate: 2.00e-06 rev/day^2
Epoch rev: 65667
Checksum: 337
Satellite: RESURS
Catalog number: 25394
Epoch time: 10364.42821787
Element set: 687
Inclination: 098.2984 deg
RA of node: 011.7570 deg
Eccentricity: 0.0002114
Arg of perigee: 029.4398 deg
Mean anomaly: 330.6902 deg
Mean motion: 14.24219919 rev/day
Decay rate: -1.8e-07 rev/day^2
Epoch rev: 64828
Checksum: 314
Satellite: FENGYUN1
Catalog number: 25730
Epoch time: 10363.47005112
Element set: 0221
Inclination: 098.8036 deg
RA of node: 323.5357 deg
Eccentricity: 0.0021649
Arg of perigee: 067.8920 deg
Mean anomaly: 292.4545 deg
Mean motion: 14.08487844 rev/day
Decay rate: 2.48e-06 rev/day^2
Epoch rev: 59917
Checksum: 305
Satellite: OKEAN-0
Catalog number: 25860
Epoch time: 10363.82977545
Element set: 0190
Inclination: 097.8606 deg
RA of node: 330.1819 deg
Eccentricity: 0.0001391
Arg of perigee: 107.4375 deg
Mean anomaly: 252.6985 deg
Mean motion: 14.73696437 rev/day
Decay rate: 6.6e-07 rev/day^2
Epoch rev: 61571
Checksum: 323
Satellite: NOAA-16
Catalog number: 26536
Epoch time: 10364.43007166
Element set: 130
Inclination: 099.1586 deg
RA of node: 026.4064 deg
Eccentricity: 0.0010998
Arg of perigee: 143.7256 deg
Mean anomaly: 216.4664 deg
Mean motion: 14.12589780 rev/day
Decay rate: -1.80e-06 rev/day^2
Epoch rev: 52953
Checksum: 307
Satellite: NOAA-17
Catalog number: 27453
Epoch time: 10364.57035068
Element set: 123
Inclination: 098.4052 deg
RA of node: 046.8295 deg
Eccentricity: 0.0010737
Arg of perigee: 284.4896 deg
Mean anomaly: 075.5095 deg
Mean motion: 14.24223568 rev/day
Decay rate: 2.00e-06 rev/day^2
Epoch rev: 44265
Checksum: 305
Satellite: NOAA-18
Catalog number: 28654
Epoch time: 10364.52755912
Element set: 609
Inclination: 098.9757 deg
RA of node: 310.4576 deg
Eccentricity: 0.0013824
Arg of perigee: 217.6454 deg
Mean anomaly: 142.3731 deg
Mean motion: 14.11422165 rev/day
Decay rate: -3.4e-07 rev/day^2
Epoch rev: 28913
Checksum: 307
Satellite: NOAA-19
Catalog number: 33591
Epoch time: 10364.55856501
Element set: 803
Inclination: 098.8103 deg
RA of node: 302.7004 deg
Eccentricity: 0.0015013
Arg of perigee: 093.1000 deg
Mean anomaly: 267.1891 deg
Mean motion: 14.11114608 rev/day
Decay rate: -8.7e-07 rev/day^2
Epoch rev: 9760
Checksum: 269
/EX
SB KEPS @ AMSAT $ORB10364.M
Orbital Elements 10364.MISC
HR AMSAT ORBITAL ELEMENTS FOR MANNED AND MISCELLANEOUS SATELLITES
FROM WA5QGD FORT WORTH,TX December 30, 2010
Send Subscribe/unsubscribe to KEPS at http://www.amsat.org/mailman/listinfo/keps
BID: ORB10364.M
TO ALL RADIO AMATEURS BT
Satellite: HUBBLE
Catalog number: 20580
Epoch time: 10363.52608847
Element set: 693
Inclination: 028.4703 deg
RA of node: 044.4992 deg
Eccentricity: 0.0003444
Arg of perigee: 119.8902 deg
Mean anomaly: 240.1995 deg
Mean motion: 15.01127167 rev/day
Decay rate: 4.90e-06 rev/day^2
Epoch rev: 93413
Checksum: 290
Satellite: ISS
Catalog number: 25544
Epoch time: 10364.88164388
Element set: 554
Inclination: 051.6475 deg
RA of node: 303.6861 deg
Eccentricity: 0.0005372
Arg of perigee: 088.8434 deg
Mean anomaly: 010.5621 deg
Mean motion: 15.72305098 rev/day
Decay rate: 1.4768e-04 rev/day^2
Epoch rev: 69441
Checksum: 313
Satellite: CO-58
Catalog number: 28895
Epoch time: 10363.65428817
Element set: 0764
Inclination: 097.9890 deg
RA of node: 241.3532 deg
Eccentricity: 0.0018663
Arg of perigee: 035.2728 deg
Mean anomaly: 324.9684 deg
Mean motion: 14.59986358 rev/day
Decay rate: 1.32e-06 rev/day^2
Epoch rev: 27550
Checksum: 358
Satellite: FALCON
Catalog number: 30776
Epoch time: 10363.93356219
Element set: 0008
Inclination: 035.4345 deg
RA of node: 295.5704 deg
Eccentricity: 0.0000795
Arg of perigee: 024.4426 deg
Mean anomaly: 335.6328 deg
Mean motion: 15.04035956 rev/day
Decay rate: 7.96e-06 rev/day^2
Epoch rev: 20954
Checksum: 300
Satellite: MAST
Catalog number: 31126
Epoch time: 10364.60664372
Element set: 47
Inclination: 097.9149 deg
RA of node: 036.2086 deg
Eccentricity: 0.0094464
Arg of perigee: 336.0774 deg
Mean anomaly: 023.6065 deg
Mean motion: 14.53658984 rev/day
Decay rate: 1.01e-06 rev/day^2
Epoch rev: 19659
Checksum: 309
Satellite: CAPE1
Catalog number: 31130
Epoch time: 10364.57150695
Element set: 68
Inclination: 097.9164 deg
RA of node: 033.2121 deg
Eccentricity: 0.0102511
Arg of perigee: 345.5667 deg
Mean anomaly: 014.2590 deg
Mean motion: 14.52271777 rev/day
Decay rate: 7.5e-07 rev/day^2
Epoch rev: 19616
Checksum: 278
Satellite: COMPASS
Catalog number: 32787
Epoch time: 10363.22953825
Element set: 0869
Inclination: 097.8713 deg
RA of node: 065.0681 deg
Eccentricity: 0.0016162
Arg of perigee: 014.5871 deg
Mean anomaly: 345.5763 deg
Mean motion: 14.82094107 rev/day
Decay rate: 5.77e-06 rev/day^2
Epoch rev: 14438
Checksum: 319
Satellite: AAUSAT2
Catalog number: 32788
Epoch time: 10363.61794695
Element set: 0859
Inclination: 097.8707 deg
RA of node: 065.6233 deg
Eccentricity: 0.0015806
Arg of perigee: 014.1173 deg
Mean anomaly: 346.0508 deg
Mean motion: 14.82253065 rev/day
Decay rate: 6.47e-06 rev/day^2
Epoch rev: 14445
Checksum: 318
Satellite: DO-64
Catalog number: 32789
Epoch time: 10363.80308557
Element set: 0875
Inclination: 097.8796 deg
RA of node: 066.5281 deg
Eccentricity: 0.0015651
Arg of perigee: 011.8518 deg
Mean anomaly: 348.3072 deg
Mean motion: 14.82515526 rev/day
Decay rate: 5.77e-06 rev/day^2
Epoch rev: 14448
Checksum: 340
Satellite: CO-66
Catalog number: 32791
Epoch time: 10364.22733439
Element set: 860
Inclination: 097.8724 deg
RA of node: 066.0330 deg
Eccentricity: 0.0016537
Arg of perigee: 009.7437 deg
Mean anomaly: 350.4088 deg
Mean motion: 14.81843709 rev/day
Decay rate: 5.47e-06 rev/day^2
Epoch rev: 14448
Checksum: 322
Satellite: RS-30
Catalog number: 32953
Epoch time: 10364.28158538
Element set: 344
Inclination: 082.5025 deg
RA of node: 267.7373 deg
Eccentricity: 0.0019867
Arg of perigee: 036.4521 deg
Mean anomaly: 323.7910 deg
Mean motion: 12.43010045 rev/day
Decay rate: 1.0e-07 rev/day^2
Epoch rev: 11810
Checksum: 267
Satellite: TACSAT-3
Catalog number: 35001
Epoch time: 10363.78044915
Element set: 0486
Inclination: 040.4545 deg
RA of node: 117.2748 deg
Eccentricity: 0.0022524
Arg of perigee: 026.0439 deg
Mean anomaly: 334.1505 deg
Mean motion: 15.44203773 rev/day
Decay rate: 5.853e-05 rev/day^2
Epoch rev: 09085
Checksum: 281
Satellite: PHARMSAT
Catalog number: 35002
Epoch time: 10363.68257296
Element set: 435
Inclination: 040.4685 deg
RA of node: 115.3864 deg
Eccentricity: 0.0024359
Arg of perigee: 028.8256 deg
Mean anomaly: 331.3902 deg
Mean motion: 15.44474909 rev/day
Decay rate: 5.090e-05 rev/day^2
Epoch rev: 9086
Checksum: 302
Satellite: HAWKSAT1
Catalog number: 35003
Epoch time: 10364.53112072
Element set: 474
Inclination: 040.4570 deg
RA of node: 097.1915 deg
Eccentricity: 0.0022744
Arg of perigee: 059.9209 deg
Mean anomaly: 300.3877 deg
Mean motion: 15.50488778 rev/day
Decay rate: 1.5442e-04 rev/day^2
Epoch rev: 9114
Checksum: 286
Satellite: CP6
Catalog number: 35004
Epoch time: 10364.49046778
Element set: 476
Inclination: 040.4584 deg
RA of node: 094.1665 deg
Eccentricity: 0.0022436
Arg of perigee: 065.0957 deg
Mean anomaly: 295.2273 deg
Mean motion: 15.52511343 rev/day
Decay rate: 1.8346e-04 rev/day^2
Epoch rev: 9116
Checksum: 305
Satellite: AEROCUB3
Catalog number: 35005
Epoch time: 10364.57518968
Element set: 594
Inclination: 040.4559 deg
RA of node: 065.0351 deg
Eccentricity: 0.0020548
Arg of perigee: 091.4613 deg
Mean anomaly: 268.8519 deg
Mean motion: 15.98453973 rev/day
Decay rate: 8.42931e-03 rev/day^2
Epoch rev: 9149
Checksum: 336
